GW7003 Weather Reports


time (UTC)temp
C
wind
direction
speed
KPH
gust
KPH
rain 1hr
cm
rain 24hr
cm
rain mn
cm
humidity
%
barometer
mb
20260505153123 20 198 8.0 12.9 0.00 2.51 2.51 83 1004.3
20260505152620 20 188 9.7 11.3 0.00 2.51 2.51 80 1004.4
20260505152116 20 183 6.4 14.5 0.00 2.51 2.51 82 1004.2
20260505151611 20 170 4.8 9.7 0.00 2.51 2.51 81 1004.0
20260505151109 20 188 3.2 4.8 0.00 2.51 2.51 85 1004.2
20260505150605 19 214 4.8 12.9 0.00 2.51 2.51 85 1004.4
20260505140530 17 164 1.6 3.2 0.00 2.51 2.51 90 1005.2
20260505124944 16 164 3.2 4.8 0.00 2.51 2.51 95 1005.2
20260505124440 15 199 0.0 1.6 0.00 2.51 2.51 96 1005.2
20260505123937 15 207 1.6 3.2 0.00 2.51 2.51 96 1005.3
20260505123433 15 173 0.0 0.0 0.00 2.51 2.51 96 1005.1
20260505122929 15 175 0.0 0.0 0.00 2.51 2.51 96 1005.2
20260505122427 15 175 1.6 1.6 0.00 2.51 2.51 96 1005.3
20260505121923 15 174 0.0 0.0 0.00 2.51 2.51 95 1005.1
20260505121421 15 174 0.0 1.6 0.00 2.51 2.51 95 1005.1
20260505120916 15 165 0.0 3.2 0.00 2.51 2.51 95 1005.1
20260505120413 15 196 1.6 1.6 0.00 2.51 2.51 95 1005.0
20260505115912 15 213 0.0 3.2 0.00 2.51 2.51 95 1005.0
20260505115408 15 215 1.6 3.2 0.00 2.51 2.51 96 1005.2
20260505114907 15 175 0.0 1.6 0.13 2.51 2.51 96 1005.2
20260505114403 15 196 3.2 4.8 0.13 2.51 2.51 96 1005.0
20260505113859 15 154 0.0 3.2 0.00 2.49 2.49 96 1005.0
20260505113356 15 152 0.0 0.0 0.00 2.49 2.49 96 1005.1
20260505112851 15 152 0.0 0.0 0.00 2.49 2.49 96 1005.2
20260505112350 15 151 0.0 1.6 0.00 2.49 2.49 96 1005.2
20260505111845 15 160 3.2 4.8 0.00 2.49 2.49 96 1005.1
20260505111340 15 155 3.2 4.8 0.00 2.49 2.49 96 1005.3
20260505110836 15 168 3.2 3.2 0.00 2.49 2.49 96 1005.4
20260505110334 15 154 3.2 4.8 0.00 2.49 2.49 96 1005.1
20260505101809 15 141 0.0 0.0 0.00 2.49 2.49 96 1005.5
20260505101304 15 140 1.6 4.8 0.00 2.49 2.49 96 1005.4
20260505100800 15 94 3.2 4.8 0.00 2.49 2.49 96 1005.6
20260505100257 15 199 1.6 3.2 0.18 2.49 2.49 96 1005.8
20260505095753 15 150 1.6 1.6 0.18 2.49 2.49 96 1005.5
20260505095251 15 166 0.0 1.6 0.00 2.46 2.46 96 1005.8
20260505094746 15 189 1.6 1.6 0.00 2.46 2.46 96 1005.8
20260505094243 15 110 0.0 1.6 0.13 2.46 2.46 96 1005.6
20260505093739 15 169 1.6 3.2 0.43 2.46 2.46 96 1005.4
20260505093237 15 117 3.2 4.8 0.13 2.41 2.41 96 1005.6
20260505092733 15 97 1.6 1.6 0.18 2.39 2.39 96 1005.9
20260505092232 15 97 3.2 3.2 0.18 2.39 2.39 96 1005.7
20260505091729 15 176 1.6 3.2 0.00 2.36 2.36 96 1005.4
20260505091228 15 212 1.6 3.2 0.00 2.36 2.36 95 1005.5
20260505090725 15 164 0.0 1.6 0.00 2.36 2.36 95 1005.4
20260505090223 15 175 1.6 6.4 0.00 2.36 2.36 95 1005.0
20260505085719 15 100 3.2 6.4 0.13 2.36 2.36 95 1005.4
20260505085218 15 174 1.6 6.4 0.30 2.36 2.36 95 1005.2
20260505084715 15 350 6.4 6.4 1.37 2.34 2.34 95 1005.7
20260505084214 15 135 4.8 9.7 2.95 2.29 2.29 94 1004.8
20260505083710 15 86 4.8 6.4 3.53 2.06 2.06 94 1005.5
20260505083207 15 359 8.0 14.5 4.75 1.78 1.78 93 1005.7
20260505082703 15 344 6.4 11.3 6.43 1.40 1.40 92 1005.0
20260505082200 16 165 3.2 11.3 3.48 0.91 0.91 91 1004.2
20260505081656 16 298 14.5 25.7 0.00 0.33 0.33 89 1005.1
20260505081154 16 331 11.3 16.1 0.48 0.33 0.33 88 1002.8
20260505080650 16 55 3.2 9.7 0.30 0.30 0.30 87 1002.1
20260505080146 16 134 4.8 6.4 0.00 0.25 0.25 87 1001.8
20260505075642 16 188 1.6 11.3 0.00 0.25 0.25 87 1002.5
20260505075139 16 158 6.4 14.5 0.00 0.25 0.25 86 1002.3
20260505074636 16 200 4.8 6.4 0.13 0.25 0.25 87 1003.2
20260505074133 16 216 4.8 6.4 0.43 0.25 0.25 87 1003.7
20260505073631 16 164 9.7 20.9 0.89 0.23 0.23 84 1003.3
20260505073129 17 190 8.0 11.3 0.89 0.18 0.18 80 1004.6
20260505072624 17 165 3.2 4.8 0.13 0.05 0.05 79 1005.4
20260505072121 18 314 4.8 6.4 0.18 0.03 0.03 76 1006.2
20260505071617 18 331 8.0 9.7 0.00 0.00 0.00 74 1005.5
20260505071115 17 346 3.2 4.8 0.00 0.00 0.00 74 1005.3
20260505070612 18 245 3.2 4.8 0.00 0.00 0.00 74 1005.0
20260505070108 18 231 0.0 4.8 0.00 0.00 0.00 71 1004.8
20260505065604 18 194 1.6 1.6 0.00 0.00 0.00 71 1004.6
20260505065101 18 238 3.2 4.8 0.00 0.00 0.00 68 1004.4
20260505064557 18 156 6.4 11.3 0.00 0.00 0.00 67 1004.6
20260505064056 19 200 3.2 6.4 0.00 0.00 0.00 66 1005.1
20260505063553 19 165 3.2 4.8 0.00 0.00 0.00 66 1004.9
20260505063049 19 174 0.0 6.4 0.00 0.00 0.00 66 1005.0
20260505062545 19 160 6.4 11.3 0.00 0.00 0.00 64 1005.0
20260505062043 20 190 6.4 9.7 0.00 0.00 0.00 63 1005.4
20260505061540 19 229 8.0 12.9 0.00 0.00 0.00 64 1005.5
20260505061038 19 188 1.6 4.8 0.00 0.00 0.00 65 1005.6
20260505060535 18 250 6.4 4.8 0.00 0.00 0.00 65 1005.4
20260505060031 18 187 3.2 6.4 0.00 0.00 0.00 67 1005.3
20260505055527 18 180 4.8 6.4 0.00 0.00 0.00 66 1005.5
20260505055024 18 174 6.4 9.7 0.00 0.00 0.00 68 1005.5
20260505054521 18 207 1.6 9.7 0.00 0.00 0.00 69 1005.4
20260505054019 17 231 3.2 9.7 0.00 0.00 0.00 71 1005.2
20260505053516 17 180 1.6 3.2 0.00 0.00 0.00 73 1005.2
20260505053013 17 205 1.6 3.2 0.00 0.00 0.00 74 1005.6
20260505052510 17 212 1.6 3.2 0.00 0.00 0.00 75 1005.5
20260505052008 17 215 1.6 3.2 0.00 0.00 0.00 75 1005.6
20260505051504 16 212 3.2 3.2 0.00 0.00 0.00 78 1005.8
20260505051003 16 208 3.2 3.2 0.00 0.00 0.00 78 1005.7
20260505050500 16 199 0.0 3.2 0.00 0.00 0.00 78 1005.7
20260505041428 17 217 0.0 0.0 0.00 0.00 0.00 71 1006.3
20260505040925 17 217 1.6 3.2 0.00 0.00 0.00 71 1006.2
20260505040422 18 200 1.6 3.2 0.00 0.00 0.00 70 1006.1
20260505035919 17 219 3.2 3.2 0.00 0.00 0.00 74 1006.5
20260505035415 17 214 1.6 3.2 0.00 0.00 0.00 75 1006.6
20260505034912 17 200 0.0 3.2 0.00 0.00 0.00 75 1006.6
20260505034408 16 219 3.2 3.2 0.00 0.00 0.00 76 1006.6
20260505033906 16 137 0.0 0.0 0.00 0.00 0.00 78 1006.6
20260505033402 17 137 0.0 0.0 0.00 0.00 0.00 76 1006.5
20260505032901 17 137 0.0 0.0 0.00 0.00 0.00 74 1006.7
20260505032357 17 180 0.0 1.6 0.00 0.00 0.00 72 1006.9
20260505031854 18 180 0.0 0.0 0.00 0.00 0.00 70 1006.6
20260505031351 18 190 3.2 4.8 0.00 0.00 0.00 67 1006.9
20260505030848 18 179 0.0 1.6 0.00 0.00 0.00 66 1006.8
20260505030344 18 203 0.0 4.8 0.00 0.00 0.00 67 1006.9
20260505025839 18 175 0.0 1.6 0.00 0.00 0.00 68 1006.7
20260505025337 18 175 1.6 1.6 0.00 0.00 0.00 67 1006.7
20260505024836 18 215 3.2 3.2 0.00 0.00 0.00 67 1006.6
20260505024333 18 168 1.6 1.6 0.00 0.00 0.00 68 1006.4
20260505023830 18 158 1.6 1.6 0.00 0.00 0.00 68 1006.6
20260505023327 18 210 3.2 6.4 0.00 0.00 0.00 70 1006.5
20260505022824 18 188 0.0 0.0 0.00 0.00 0.00 70 1006.5
20260505022321 18 193 0.0 0.0 0.00 0.00 0.00 70 1006.1
20260505021818 17 182 1.6 1.6 0.00 0.00 0.00 71 1006.2
20260505021314 18 177 0.0 1.6 0.00 0.00 0.00 70 1006.2
20260505020810 18 208 0.0 1.6 0.00 0.00 0.00 69 1006.1
20260505020307 18 200 1.6 11.3 0.00 0.00 0.00 70 1006.1
20260505015803 18 197 3.2 3.2 0.00 0.00 0.00 69 1005.9
20260505015301 18 198 0.0 1.6 0.00 0.00 0.00 68 1005.9
20260505014758 18 215 0.0 1.6 0.00 0.00 0.00 68 1005.9
20260505014255 18 214 0.0 1.6 0.00 0.00 0.00 66 1005.8
20260505013751 18 188 3.2 3.2 0.00 0.00 0.00 67 1005.7
20260505013249 19 194 0.0 1.6 0.00 0.00 0.00 66 1005.6
20260505012747 20 193 1.6 4.8 0.00 0.00 0.00 63 1005.7
20260505012244 20 209 3.2 3.2 0.00 0.00 0.00 63 1005.4
20260505011739 20 186 3.2 3.2 0.00 0.00 0.00 62 1005.5
20260505011237 20 181 1.6 1.6 0.00 0.00 0.00 62 1005.5
20260505010732 20 187 1.6 9.7 0.00 0.00 0.00 61 1005.6
20260505010229 20 194 4.8 4.8 0.00 0.00 0.00 62 1005.6
20260505005725 20 210 3.2 6.4 0.00 0.00 0.00 60 1005.6
20260505005222 20 198 1.6 6.4 0.00 0.00 0.00 59 1005.3
20260505004719 21 191 3.2 4.8 0.00 0.00 0.00 59 1005.5
20260505004216 21 178 4.8 4.8 0.00 0.00 0.00 59 1005.4
20260505003713 21 219 3.2 4.8 0.00 0.00 0.00 58 1005.5
20260505003211 21 173 4.8 4.8 0.00 0.00 0.00 57 1005.5
20260505002707 21 228 4.8 9.7 0.00 0.00 0.00 57 1005.6
20260505002205 21 199 3.2 6.4 0.00 0.00 0.00 55 1005.5
20260505001702 21 213 4.8 9.7 0.00 0.00 0.00 55 1005.5
20260505001159 22 226 4.8 6.4 0.00 0.00 0.00 55 1005.5
20260505000656 22 176 3.2 6.4 0.00 0.00 0.00 55 1005.5
20260505000154 22 233 6.4 9.7 0.00 0.00 0.00 53 1005.4
20260504235650 22 175 3.2 6.4 0.00 0.00 0.00 52 1005.6
20260504235146 22 179 1.6 11.3 0.00 0.00 0.00 53 1005.4
20260504234644 22 181 6.4 12.9 0.00 0.00 0.00 52 1005.3
20260504234141 22 262 11.3 12.9 0.00 0.00 0.00 52 1005.5
20260504233637 22 234 6.4 14.5 0.00 0.00 0.00 51 1005.5
20260504233133 22 180 9.7 16.1 0.00 0.00 0.00 51 1005.5
20260504232631 22 249 8.0 14.5 0.00 0.00 0.00 51 1005.5
20260504232127 23 174 8.0 17.7 0.00 0.00 0.00 51 1005.6
20260504231624 23 183 12.9 22.5 0.00 0.00 0.00 49 1005.7
20260504231120 23 211 6.4 6.4 0.00 0.00 0.00 51 1005.6
20260504230616 23 203 8.0 16.1 0.00 0.00 0.00 52 1005.6
20260504230116 23 216 9.7 14.5 0.00 0.00 0.00 52 1005.5
20260504225613 24 191 6.4 16.1 0.00 0.00 0.00 51 1005.1
20260504225109 24 234 4.8 16.1 0.00 0.00 0.00 51 1005.4
20260504224606 24 234 4.8 12.9 0.00 0.00 0.00 52 1005.5
20260504224103 24 232 4.8 12.9 0.00 0.00 0.00 50 1005.2
20260504223600 24 244 6.4 6.4 0.00 0.00 0.00 48 1005.6
20260504223055 24 113 6.4 16.1 0.00 0.00 0.00 51 1005.4
20260504222553 25 203 9.7 12.9 0.00 0.00 0.00 48 1005.3
20260504222050 25 213 8.0 17.7 0.00 0.00 0.00 48 1005.5
20260504221547 25 183 9.7 12.9 0.00 0.00 0.00 47 1005.6
20260504221044 25 303 9.7 14.5 0.00 0.00 0.00 46 1005.8
20260504220540 25 178 4.8 9.7 0.00 0.00 0.00 46 1005.9
20260504220038 25 161 17.7 24.1 0.00 0.00 0.00 45 1006.2
20260504215534 25 232 9.7 12.9 0.00 0.00 0.00 47 1005.8
20260504215032 25 231 3.2 14.5 0.00 0.00 0.00 49 1006.0
20260504214527 25 214 6.4 6.4 0.00 0.00 0.00 47 1005.9
20260504214024 25 214 12.9 20.9 0.00 0.00 0.00 47 1006.1
20260504213521 25 230 8.0 17.7 0.00 0.00 0.00 49 1006.0
20260504213018 25 188 9.7 12.9 0.00 0.00 0.00 45 1006.3
20260504212513 25 180 4.8 9.7 0.00 0.00 0.00 49 1006.3
20260504212011 25 210 3.2 12.9 0.00 0.00 0.00 49 1006.4
20260504211508 25 228 14.5 17.7 0.00 0.00 0.00 47 1006.6
20260504211005 25 205 6.4 14.5 0.00 0.00 0.00 47 1006.3
20260504210502 25 175 9.7 11.3 0.00 0.00 0.00 47 1006.5
20260504205958 25 165 12.9 16.1 0.00 0.00 0.00 49 1006.5
20260504205456 25 212 6.4 22.5 0.00 0.00 0.00 50 1006.5
20260504204954 25 162 8.0 24.1 0.00 0.00 0.00 49 1006.5
20260504204452 25 185 14.5 24.1 0.00 0.00 0.00 44 1006.7
20260504203951 25 218 11.3 16.1 0.00 0.00 0.00 45 1006.7
20260504203449 25 169 4.8 9.7 0.00 0.00 0.00 44 1006.8
20260504202944 25 235 6.4 11.3 0.00 0.00 0.00 45 1007.2
20260504202441 25 177 9.7 17.7 0.00 0.00 0.00 44 1007.2
20260504201938 25 215 9.7 17.7 0.00 0.00 0.00 45 1007.1
20260504201435 25 238 8.0 17.7 0.00 0.00 0.00 42 1007.2
20260504200933 25 215 9.7 20.9 0.00 0.00 0.00 43 1007.3
20260504200429 25 232 9.7 22.5 0.00 0.00 0.00 45 1007.5
20260504195926 25 272 12.9 20.9 0.00 0.00 0.00 44 1007.6
20260504195422 25 254 14.5 22.5 0.00 0.00 0.00 43 1007.7
20260504194918 25 182 8.0 14.5 0.00 0.00 0.00 44 1007.4
20260504194414 25 215 19.3 24.1 0.00 0.00 0.00 43 1007.3
20260504193910 25 205 4.8 12.9 0.00 0.00 0.00 46 1007.6
20260504193408 25 206 4.8 20.9 0.00 0.00 0.00 44 1007.7
20260504192907 25 247 16.1 20.9 0.00 0.00 0.00 46 1007.6
20260504192403 25 205 6.4 17.7 0.00 0.00 0.00 46 1008.0
20260504191902 24 246 14.5 16.1 0.00 0.00 0.00 45 1008.0
20260504191400 25 226 14.5 20.9 0.00 0.00 0.00 43 1008.0
20260504190855 25 233 4.8 16.1 0.00 0.00 0.00 47 1008.0
20260504190351 25 232 6.4 16.1 0.00 0.00 0.00 48 1008.1
20260504185848 25 181 19.3 24.1 0.00 0.00 0.00 44 1008.0
20260504185345 25 226 11.3 16.1 0.00 0.00 0.00 46 1007.9
20260504184841 25 208 6.4 17.7 0.00 0.00 0.00 46 1008.3
20260504184337 24 189 6.4 14.5 0.00 0.00 0.00 49 1008.2
20260504183833 25 114 6.4 14.5 0.00 0.00 0.00 46 1008.2
20260504183330 24 231 9.7 17.7 0.00 0.00 0.00 48 1008.4
20260504182828 24 221 6.4 12.9 0.00 0.00 0.00 49 1008.4
20260504182325 24 226 6.4 22.5 0.00 0.00 0.00 48 1008.6
20260504181822 24 229 14.5 24.1 0.00 0.00 0.00 47 1008.5
20260504181320 24 257 9.7 20.9 0.00 0.00 0.00 48 1008.9
20260504180818 24 145 17.7 22.5 0.00 0.00 0.00 51 1008.6
20260504180316 23 232 8.0 17.7 0.00 0.00 0.00 48 1008.6
20260504175814 23 160 14.5 22.5 0.00 0.00 0.00 49 1008.8
20260504175311 23 192 8.0 25.7 0.00 0.00 0.00 50 1009.1
20260504174809 23 244 8.0 20.9 0.00 0.00 0.00 48 1009.0
20260504174306 23 188 6.4 22.5 0.00 0.00 0.00 50 1009.0
20260504173803 23 220 11.3 22.5 0.00 0.00 0.00 47 1009.0
20260504173259 23 170 9.7 20.9 0.00 0.00 0.00 47 1009.0
20260504172756 23 195 8.0 16.1 0.00 0.00 0.00 48 1009.1
20260504172253 23 198 8.0 24.1 0.00 0.00 0.00 52 1009.1
20260504171749 23 172 8.0 17.7 0.00 0.00 0.00 49 1009.1
20260504171246 23 182 9.7 14.5 0.00 0.00 0.00 48 1009.4
20260504170743 23 161 9.7 20.9 0.00 0.00 0.00 49 1009.2
20260504170240 23 195 9.7 17.7 0.00 0.00 0.00 47 1009.4
20260504160159 22 224 8.0 24.1 0.00 0.00 0.00 47 1009.9